User: anonymous   Login
Location: Unspecified
(0.0000°N, 0.0000°E)
Time: 05:30:21
(UTC+00:00)
Language:

NAVSTAR 65 (USA 213) - Orbit

View from above orbital plane
View from above orbital plane
View from above satellite
View from above satellite

Ground track
Ground track

The orbit data is extracted from the following two-line orbital elements,

1 36585U 10022A   17056.42135226 -.00000060  00000-0  00000+0 0  9992
2 36585  56.0173 345.0559 0060639  42.0262 157.3048  2.00569337 49424
Epoch (UTC): 25 February 2017 10:06:44
Eccentricity: 0.0060639
inclination: 56.0173°
perigee height: 20020 km
apogee height: 20342 km
right ascension of ascending node: 345.0559°
argument of perigee: 42.0262°
revolutions per day: 2.00569337
mean anomaly at epoch: 157.3048°
orbit number at epoch: 4942

The dashed part of the orbit path shows where the satellite is in the earth's shadow,  

DLR